SL-12 R/B(2), 15334

Orbit data source: Space-Track

SL-12 R/B(2), 15334 is space debris in LEO originally from a launch on Fri, 28 Sep 1984 UTC launched from the Tyuratam Missile And Space Complex (TTMTR). Debris objects in space refer to the collection of defunct objects orbiting the Earth. Examples of debris include non-operational satellites, rocket bodies, and fragments generated from explosions, collisions, or faulty payload assembly.

Loading next visibility...
SL-12 R/B(2) details
Identifier
15334, 1984-106B
Orbit
LEO
Last TLE update8 hours ago
Origin
Flag of CISRVSN (CIS)
ManufacturerNPO Energiya
MissionSpacecraft
Bus & MotorBLOK DM, Unknown motor
Mass2,660 kg wet, 2,440 kg dry
Launch date (UTC)
1984-09-28 (40 years ago)
Launch vehicleUnknown
Launch site
Tyuratam Missile And Space Complex (TTMTR)
Object type
Payload
Rocket body
Debris
Shape & HBRCyl, 6.27 m
Radar Cross Section23.597 m², Large (>1 m²)

Expand to show TLE details & history

TLE from 8 hours ago
0 SL-12 R/B(2)
1 15334U 84106B   24361.50454036  .00000062  00000-0  56408-4 0  9993
2 15334  71.0021  29.6058 0001304  85.4066 274.7206 14.15478076957817
Epoch: 2024-12-26T12:06Z
Definitive object data (Epoch: 2024-12-26T12:06:32.287Z)
Latitude0.00002°
Longitude112.48829°
Altitude843.01 km
Speed7.432 km/s
True Right ascension01h 58m 25s
True Declination0° 00' 00"
Sunlit
Object was in daylight at TLE epoch
Visualization TLE readout
Latitude-43.53996°
Longitude92.77257°
Altitude857.519 km
Speed7.423 km/s
Apparent Right ascension04h 01m 36s
Apparent Declination-56° 00' 36"
Sunlit
Object is in daylight
Visualization observer readout
Local Sidereal Time19:44:59
Azimuth133.207° SE
Elevation-50.603°
Doppler factor1
Orbital elements
Apogee altitude839.552 km
Perigee altitude837.669 km
Semi-major axis7,216.747 km
Eccentricity0.0001304
Inclination71.0021°
RAAN29.6058°
Arg. of periapsis85.4066°
True anomaly274.70571°
Mean anomaly274.7206°
Eccentric anomaly274.71315°
Mean motion3.54023 °/min
BSTAR0.000056408
Orbital period101.69 mins
Loading maneuver chart data...

SL-12 R/B(2) Visibility forecast

Observer location: undefined°, undefined

Span
Click to sort rows by Start time (UTC) header in descending order
Start Az.
Max El. time (UTC)
Max El. Az.
Max El.
End time (UTC)
End Az.
9 mins2024-12-27 03:30:10.558Z200.425° SSW2024-12-27 03:34:10.558Z185.89° SSW44.755°2024-12-27 03:39:10.558Z23.642° NE
4 mins2024-12-27 05:18:10.558Z298.728° NW2024-12-27 05:19:10.558Z310.723° NW14.333°2024-12-27 05:22:10.558Z343.793° N
8 mins2024-12-27 12:25:10.558Z1.591° NNE2024-12-27 12:29:10.558Z68.517° E30.654°2024-12-27 12:33:10.558Z122.266° SE
8 mins2024-12-27 14:09:10.558Z307.181° NW2024-12-27 14:12:10.558Z266.354° W26.331°2024-12-27 14:17:10.558Z199.049° SSW
|